[Date Prev][Date Next][Thread Prev][Thread Next] - [Date Index][Thread Index][Author Index]

2 Line ISS Keps 6-26



ISS
1 25544U 98067A   02177.49600309  .00018586  00000-0  24696-3 0  6027
2 25544  51.6377   6.2239 0007159 289.1793  96.8605 15.58226231205482


----
Via the sarex mailing list at AMSAT.ORG courtesy of AMSAT-NA.
To unsubscribe, send "unsubscribe sarex" to Majordomo@amsat.org



AMSAT Top AMSAT Home